Regional Weather Roundup
Issued by NWS

Home | Current Version | Previous Version | Graphics & Text | Print | Product List | Glossary Off
Versions: 1 2 3 4 5 6 7 8 9 10 11 12 13 14 15 16 17 18 19 20 21 22 23 24 25 26 27 28 29 30 31 32 33 34 35 36 37 38 39 40 41 42 43 44 45 46 47 48 49 50

000
ASUS43 KTOP 261659
RWRKS

WEATHER ROUNDUP FOR KANSAS
NATIONAL WEATHER SERVICE GOODLAND KS
1200 PM CDT FRI AUG 26 2016

NOTE:  "FAIR" INDICATES FEW OR NO CLOUDS BELOW 12,000 FEET WITH NO
SIGNIFICANT WEATHER AND/OR OBSTRUCTIONS TO VISIBILITY.

KSZ001>006-013>018-027>032-041>047-261800-
NORTHWEST KANSAS

CITY           SKY/WX    TMP DP  RH WIND       PRES   REMARKS
GOODLAND       PTSUNNY   69  57  65 SE8       30.13F
HAYS           CLOUDY    70  55  60 NE7       30.10F
HILL CITY      PTSUNNY   70  61  73 VRB3      30.11F
RUSSELL        CLOUDY    66  63  90 E8        30.09S
$$

KSZ061>065-074>080-084>089-261800-
SOUTHWEST KANSAS

CITY           SKY/WX    TMP DP  RH WIND       PRES   REMARKS
DODGE CITY     CLOUDY    68  65  90 S6        30.13S
ELKHART          N/A     70  59  68 S8          N/A
GARDEN CITY    CLOUDY    69  61  75 SE8       30.13S
GREAT BEND     CLOUDY    70  61  73 E3        30.10F
LIBERAL        CLOUDY    72  63  73 S7        30.15S
$$

KSZ066>073-081>083-090>101-261800-
SOUTHEAST KANSAS

CITY           SKY/WX    TMP DP  RH WIND       PRES   REMARKS
CHANUTE        CLOUDY    83  70  64 E10       30.08F
COFFEYVILLE    CLOUDY    84  70  62 SE6       30.07F
HUTCHINSON     CLOUDY    73  66  78 VRB3      30.11S
MEDICINE LODGE   N/A     74  67  78 VRB6      30.05F
NEWTON         CLOUDY    72  66  81 CALM      30.11F
PARSONS        CLOUDY    82  70  66 SE7       30.09F
WICHITA INTL   CLOUDY    77  68  73 S8        30.09F
WICHITA JABRA    N/A     74  67  78 SW7       30.10S
WINFIELD       CLOUDY    80  69  69 SE7       30.10S
$$

KSZ007>012-019>026-033>040-048>060-102>105-261800-
NORTHEAST KANSAS

CITY           SKY/WX    TMP DP  RH WIND       PRES   REMARKS
CONCORDIA      CLOUDY    66  63  90 E3        30.10S
EMPORIA        CLOUDY    78  69  73 SE9       30.08F
LAWRENCE       CLOUDY    77  70  79 E10       30.08F
MANHATTAN      CLOUDY    71  68  90 VRB5      30.09F
OLATHE IND     CLOUDY    77  69  76 SE8       30.10F
OLATHE EXE     CLOUDY    76  70  82 SE7       30.10F
SALINA         CLOUDY    71  67  87 S7        30.10S
TOPEKA BILLARD CLOUDY    76  69  79 E10       30.08S
TOPEKA FORBES  CLOUDY    79  69  71 SE10      30.08F
$$




USA.gov is the U.S. government's official web portal to all federal, state and local government web resources and services.